Погода Курган-Тюбе

Погода Курган-Тюбе : погода сейчас, прогноз погоды и архив. Всё, что Вы хотите узнать о погоде Курган-Тюбе!

Поиск расширенной информации на нашем сайте:

Другие новости

Новости СМИ2

Главная страница сайта

Новости сайта

03.07.2017

Напоминаем, что на нашем специализированном сайте Метеоцентр.Азия вы можете получить высокодетализированные автоматические прогнозы погоды по пунктам России, СНГ и мира в авиационном формате (включающие направление и скорость ветра, видимость, явления погоды, количество и форму облачности, нижнюю и верхнюю границу облачности).


Погода Курган-Тюбе - сегодня

Время (UTC), дата Ветер
(°,м/с) 
Видим.   Явления Облачность Т
(°С)
Тd
(°С)
f(%) Тe
(°С)
Pmin
(гПа)
dP
(гПа)
Po
(мм)
O2
(г/м3)
Тmin Tmax R s Состояние
почвы
09 22.09.18 180 (Ю) 10 км    3/0 верхняя 
[Ci sp]
+27.6 +12.8 40 +34  1013.4  -2.2  724  263           
12 22.09.18 180 (Ю) 20000 м    3/0 средняя 
[Ac trans]
+28 +13.5 41 +35  1012.1  -1.2  723  262           
15 22.09.18 180 (Ю) н/о    ясно 
+23.6 +15.1 59 +33  1013.1  0.4  724  265    +29       
18 22.09.18 180 (Ю) н/о    8/0 средняя 
[Ac trans]
+19 +13.5 70 +28  1016  1.9  725  270    +29       
21 22.09.18 360 (С) н/о    10/0 средняя 
[Ac und]
+18.2 +12.8 71 +26  1016.3  0.2  725  271           
00 23.09.18 180 (Ю) н/о    10/0 средняя 
[Ac und]
+17.3 +12.8 75 +25  1016.7  0.2  725  272           
03 23.09.18 180 (Ю) 10 км    9/0 средняя 
[Ac trans]
+18 +12.8 72 +25  1017.3  0.7  726  272  +17.2        сухая 
06 23.09.18 180 (Ю) 10 км    4/0 верхняя 
[Ci sp]
+25.4 +17.6 62 +40  1015.2  -0.7  725  263  +17.2         
09 23.09.18 230 (ЮЗ) 20000 м    3/0 верхняя 
[Ci sp]
+28 +17.6 53 +43  1013.8  -1.1  725  261           
12 23.09.18 180 (Ю) 20000 м    ясно 
+27.8 +16.4 50 +40  1012.4  -1.3  724  261           
15 23.09.18 140 (ЮВ) н/о    ясно <0100 м 
+22.3 +14.1 60 +30  1013.3  724  267  -0.5  +10.2      полностью
покрыта
пылью 
18 23.09.18 050 (СВ) н/о    ясно 
+17 +13.2 78 +25  1016.6  2.3  725  272    +29       
21 23.09.18 360 (С) н/о    ясно 
+15.9 +12.6 81 +23  1016  -0.8  725  273           
00 24.09.18 050 (СВ) н/о    ясно 
+15 +12.6 86 +22  1015.4  -0.6  724  274           
03 24.09.18 тихо ()   20000 м    ясно 
+16.1 +15.1 94 +26  1016.2  0.8  725  273  +12.4        сухая 
06 24.09.18 320 (СЗ) 20000 м    ясно 
+25.4 +16.9 59 +39  1016.1  1.5  726  264  +12.4         
09 24.09.18 090 (В) 20000 м    ясно 
+29.5 +14.3 40 +38  1012.9  -2.5  724  260           
12 24.09.18 230 (ЮЗ) 20000 м    ясно 
+29.4 +13.7 38 +37  1011.9  -1  723  260           
15 24.09.18 090 (В) н/о    ясно 
+22 +11.2 50 +26  1011.4  -1.7  722  267    +31       
18 24.09.18 050 (СВ) н/о    ясно 
+17.4 +9.7 61 +20  1013.5  1.3  723  272    +31       
21 24.09.18 090 (В) н/о    ясно 
+14.5 +10.3 76 +18  1014.5  0.5  724  275           
00 25.09.18 360 (С) н/о    ясно 
+13.7 +9.7 77 +16  1014.7  724  276           
06 25.09.18 230 (ЮЗ) 20000 м    ясно 
+26 +11.4 40 +30  1015.4  1.8  726  265    +12       
09 25.09.18 230 (ЮЗ) 20000 м    ясно 
+29.6 +11.5 33 +34  1012.8  -2  724  261           
12 25.09.18 270 (З) 20000 м    ясно 
+30.2 +12.6 34 +36  1010.6  -2  723  260           
Время (UTC), дата Ветер
(°,м/с) 
Видим.   Явления Облачность Т
(°С)
Тd
(°С)
f(%) Тe
(°С)
Pmin
(гПа)
dP
(гПа)
Po
(мм)
O2
(г/м3)
Тmin Tmax R s Состояние
почвы

Для получения пояснительной информации подведите курсор к названию столбца.

ПОГОДА Курган-Тюбе - архив

Всё, что Вы хотите узнать о погоде Курган-Тюбе - удобно и подробно!

Выберите нужную дату (начиная с 1 января 2015* года) и нажмите кнопку "Найти".
Будут отображены архивные сводки погоды по пункту Курган-Тюбе, начиная с указанной даты.


Отображать данные в формате CSV (для использования в таблицах Excel)


Внимание! Наш архив погоды предназначен исключительно для личного некоммерческого использования в познавательных целях. Если Вам необходимы официальные справки о состоянии погоды (для производственных, юридических, коммерческих и т.п. целей), обращайтесь в органы Росгидромета.

*Примечание: данная дата относится к архиву по метеостанциям СССР (Россия, СНГ, Балтия).
Архив по метеостанциям Зарубежной Европы и Азии (кроме Китая) хранится 10 дней, по другим регионам земного шара (Китай, Африка, Америка, Австралия, Океания) - 1 день.

Курган-Тюбе - район местоположения метеостанции


Название, широта, долгота, высота метеостанции:
Курган-Тюбе 37.8°ш. 68.8°д. 429 м над ур. моря [Таджикистан]

Дополнительная информация

В oтличие oт бoльшинства пoгoдных сайтoв мы публикуем пoдрoбную метеoинфoрмацию в детальнoм прoфессиoнальнoм фoрмате.

Характеристики температуры и влажнoсти вoздуха измеряются на высoте 2 м в тени вдали oт зданий и деревьев.
Скoрoсть ветра измеряется на высoте 10 м (на урoвне рoста челoвека скoрoсть ветра ниже в 1.5-2 раза). Если метеoстанция нахoдится в гoрoде или в лесу, тo скoрoсть ветра занижена на 2-4 м/с пo сравнению с oткрытым местoм. Скoрoсть ветра над акватoриями крупных рек и oзёр, а также на вершинах хoлмoв на 2-5 м/с выше, чем в oбычных услoвиях.
Атмoсфернoе давление в разных тoчках местнoсти мoжет значительнo oтличаться oт давления на метеoстанции, в зависимoсти oт услoвий рельефа (при пoдъёме на 10 м давление пoнижается примернo на 1 мм рт.ст.).